owner,sensor,date,latitude,longitude,vertical_datum,sea_water_practical_salinity,qcFlag 
ENP,ioos.station.NOAA.NDBC:GBTF1:1,2019-03-01T00:00:00Z,25.1670,-80.8010,1.5,35.1,11111222 
ENP,ioos.station.NOAA.NDBC:GBTF1:1,2019-03-01T01:00:00Z,25.1670,-80.8010,1.5,35.0,11111222 
ENP,ioos.station.NOAA.NDBC:GBTF1:1,2019-03-01T02:00:00Z,25.1670,-80.8010,1.5,34.9,11111222 
ENP,ioos.station.NOAA.NDBC:GBTF1:1,2019-03-01T03:00:00Z,25.1670,-80.8010,1.5,34.9,1111122 
ENP,ioos.station.NOAA.NDBC:GBTF1:1,2019-03-01T04:00:00Z,25.1670,-80.8010,1.5,35.1,11111222 
ENP,ioos.station.NOAA.NDBC:GBTF1:1,2019-03-01T05:00:00Z,25.1670,-80.8010,1.5,35.41,1111122 
ENP,ioos.station.NOAA.NDBC:GBTF1:1,2019-03-01T06:00:00Z,25.1670,-80.8010,1.5,35.4,11111222 
ENP,ioos.station.NOAA.NDBC:GBTF1:1,2019-03-01T07:00:00Z,25.1670,-80.8010,1.5,35.31,1111122 
ENP,ioos.station.NOAA.NDBC:GBTF1:1,2019-03-01T08:00:00Z,25.1670,-80.8010,1.5,35.33,1111122 
ENP,ioos.station.NOAA.NDBC:GBTF1:1,2019-03-01T09:00:00Z,25.1670,-80.8010,1.5,35.33,1111122 
ENP,ioos.station.NOAA.NDBC:GBTF1:1,2019-03-01T10:00:00Z,25.1670,-80.8010,1.5,35.44,1111122 
ENP,ioos.station.NOAA.NDBC:GBTF1:1,2019-03-01T11:00:00Z,25.1670,-80.8010,1.5,35.43,1111122 
ENP,ioos.station.NOAA.NDBC:GBTF1:1,2019-03-01T12:00:00Z,25.1670,-80.8010,1.5,35.33,1111122 
ENP,ioos.station.NOAA.NDBC:GBTF1:1,2019-03-01T13:00:00Z,25.1670,-80.8010,1.5,35.31,1111122 
ENP,ioos.station.NOAA.NDBC:GBTF1:1,2019-03-01T14:00:00Z,25.1670,-80.8010,1.5,35.26,1111122 
ENP,ioos.station.NOAA.NDBC:GBTF1:1,2019-03-01T15:00:00Z,25.1670,-80.8010,1.5,35.27,1111122 
ENP,ioos.station.NOAA.NDBC:GBTF1:1,2019-03-01T16:00:00Z,25.1670,-80.8010,1.5,35.37,1111122 
ENP,ioos.station.NOAA.NDBC:GBTF1:1,2019-03-01T17:00:00Z,25.1670,-80.8010,1.5,35.42,1111122 
ENP,ioos.station.NOAA.NDBC:GBTF1:1,2019-03-01T18:00:00Z,25.1670,-80.8010,1.5,35.4,1111122 
ENP,ioos.station.NOAA.NDBC:GBTF1:1,2019-03-01T19:00:00Z,25.1670,-80.8010,1.5,35.38,1111122 
ENP,ioos.station.NOAA.NDBC:GBTF1:1,2019-03-01T20:00:00Z,25.1670,-80.8010,1.5,35.35,1111122 
ENP,ioos.station.NOAA.NDBC:GBTF1:1,2019-03-01T21:00:00Z,25.1670,-80.8010,1.5,35.37,1111122 
ENP,ioos.station.NOAA.NDBC:GBTF1:1,2019-03-01T22:00:00Z,25.1670,-80.8010,1.5,35.37,1111122 
ENP,ioos.station.NOAA.NDBC:GBTF1:1,2019-03-01T23:00:00Z,25.1670,-80.8010,1.5,35.39,1111122 
ENP,ioos.station.NOAA.NDBC:GBTF1:1,2019-03-02T00:00:00Z,25.1670,-80.8010,1.5,35.35,1111122 
ENP,ioos.station.NOAA.NDBC:GBTF1:1,2019-03-02T01:00:00Z,25.1670,-80.8010,1.5,35.3,1111122 
ENP,ioos.station.NOAA.NDBC:GBTF1:1,2019-03-02T02:00:00Z,25.1670,-80.8010,1.5,35.4,11111222 
ENP,ioos.station.NOAA.NDBC:GBTF1:1,2019-03-02T03:00:00Z,25.1670,-80.8010,1.5,35.45,1111122 
ENP,ioos.station.NOAA.NDBC:GBTF1:1,2019-03-02T04:00:00Z,25.1670,-80.8010,1.5,35.5,11111222 
ENP,ioos.station.NOAA.NDBC:GBTF1:1,2019-03-02T05:00:00Z,25.1670,-80.8010,1.5,35.57,1111122 
ENP,ioos.station.NOAA.NDBC:GBTF1:1,2019-03-02T06:00:00Z,25.1670,-80.8010,1.5,35.6,1111122 
ENP,ioos.station.NOAA.NDBC:GBTF1:1,2019-03-02T07:00:00Z,25.1670,-80.8010,1.5,35.6,1111122 
ENP,ioos.station.NOAA.NDBC:GBTF1:1,2019-03-02T08:00:00Z,25.1670,-80.8010,1.5,35.62,1111122 
ENP,ioos.station.NOAA.NDBC:GBTF1:1,2019-03-02T09:00:00Z,25.1670,-80.8010,1.5,35.62,1111122 
ENP,ioos.station.NOAA.NDBC:GBTF1:1,2019-03-02T10:00:00Z,25.1670,-80.8010,1.5,35.65,1111122 
ENP,ioos.station.NOAA.NDBC:GBTF1:1,2019-03-02T11:00:00Z,25.1670,-80.8010,1.5,35.66,1111122 
ENP,ioos.station.NOAA.NDBC:GBTF1:1,2019-03-02T12:00:00Z,25.1670,-80.8010,1.5,35.65,1111122 
ENP,ioos.station.NOAA.NDBC:GBTF1:1,2019-03-02T13:00:00Z,25.1670,-80.8010,1.5,35.7,1111122 
ENP,ioos.station.NOAA.NDBC:GBTF1:1,2019-03-02T14:00:00Z,25.1670,-80.8010,1.5,35.7,1111122 
ENP,ioos.station.NOAA.NDBC:GBTF1:1,2019-03-02T15:00:00Z,25.1670,-80.8010,1.5,35.65,1111122 
ENP,ioos.station.NOAA.NDBC:GBTF1:1,2019-03-02T16:00:00Z,25.1670,-80.8010,1.5,35.61,1111122 
ENP,ioos.station.NOAA.NDBC:GBTF1:1,2019-03-02T17:00:00Z,25.1670,-80.8010,1.5,35.57,1111122 
ENP,ioos.station.NOAA.NDBC:GBTF1:1,2019-03-02T18:00:00Z,25.1670,-80.8010,1.5,35.36,1111122 
ENP,ioos.station.NOAA.NDBC:GBTF1:1,2019-03-02T19:00:00Z,25.1670,-80.8010,1.5,35.2,1111122 
ENP,ioos.station.NOAA.NDBC:GBTF1:1,2019-03-02T20:00:00Z,25.1670,-80.8010,1.5,35.2,1111122 
ENP,ioos.station.NOAA.NDBC:GBTF1:1,2019-03-02T21:00:00Z,25.1670,-80.8010,1.5,35.27,1111122 
ENP,ioos.station.NOAA.NDBC:GBTF1:1,2019-03-02T22:00:00Z,25.1670,-80.8010,1.5,35.31,1111122 
ENP,ioos.station.NOAA.NDBC:GBTF1:1,2019-03-02T23:00:00Z,25.1670,-80.8010,1.5,35.34,1111122 
ENP,ioos.station.NOAA.NDBC:GBTF1:1,2019-03-03T00:00:00Z,25.1670,-80.8010,1.5,35.32,1111122 
ENP,ioos.station.NOAA.NDBC:GBTF1:1,2019-03-03T01:00:00Z,25.1670,-80.8010,1.5,35.25,1111122 
ENP,ioos.station.NOAA.NDBC:GBTF1:1,2019-03-03T02:00:00Z,25.1670,-80.8010,1.5,35.2,11111222 
ENP,ioos.station.NOAA.NDBC:GBTF1:1,2019-03-03T03:00:00Z,25.1670,-80.8010,1.5,35.17,1111122 
ENP,ioos.station.NOAA.NDBC:GBTF1:1,2019-03-03T04:00:00Z,25.1670,-80.8010,1.5,35.2,11111222 
ENP,ioos.station.NOAA.NDBC:GBTF1:1,2019-03-03T05:00:00Z,25.1670,-80.8010,1.5,35.31,1111122 
ENP,ioos.station.NOAA.NDBC:GBTF1:1,2019-03-03T06:00:00Z,25.1670,-80.8010,1.5,35.48,1111122 
ENP,ioos.station.NOAA.NDBC:GBTF1:1,2019-03-03T07:00:00Z,25.1670,-80.8010,1.5,35.73,1111122 
ENP,ioos.station.NOAA.NDBC:GBTF1:1,2019-03-03T08:00:00Z,25.1670,-80.8010,1.5,35.82,1111122 
ENP,ioos.station.NOAA.NDBC:GBTF1:1,2019-03-03T09:00:00Z,25.1670,-80.8010,1.5,35.79,1111122 
ENP,ioos.station.NOAA.NDBC:GBTF1:1,2019-03-03T10:00:00Z,25.1670,-80.8010,1.5,35.82,1111122 
ENP,ioos.station.NOAA.NDBC:GBTF1:1,2019-03-03T11:00:00Z,25.1670,-80.8010,1.5,35.84,1111122 
ENP,ioos.station.NOAA.NDBC:GBTF1:1,2019-03-03T12:00:00Z,25.1670,-80.8010,1.5,35.79,1111122 
ENP,ioos.station.NOAA.NDBC:GBTF1:1,2019-03-03T13:00:00Z,25.1670,-80.8010,1.5,35.79,1111122 
ENP,ioos.station.NOAA.NDBC:GBTF1:1,2019-03-03T14:00:00Z,25.1670,-80.8010,1.5,35.78,1111122 
ENP,ioos.station.NOAA.NDBC:GBTF1:1,2019-03-03T15:00:00Z,25.1670,-80.8010,1.5,35.73,1111122 
ENP,ioos.station.NOAA.NDBC:GBTF1:1,2019-03-03T16:00:00Z,25.1670,-80.8010,1.5,35.67,1111122 
ENP,ioos.station.NOAA.NDBC:GBTF1:1,2019-03-03T17:00:00Z,25.1670,-80.8010,1.5,35.32,1111122 
ENP,ioos.station.NOAA.NDBC:GBTF1:1,2019-03-03T18:00:00Z,25.1670,-80.8010,1.5,35.0,11111222 
ENP,ioos.station.NOAA.NDBC:GBTF1:1,2019-03-03T19:00:00Z,25.1670,-80.8010,1.5,34.56,1111122 
ENP,ioos.station.NOAA.NDBC:GBTF1:1,2019-03-03T20:00:00Z,25.1670,-80.8010,1.5,34.68,1111122 
ENP,ioos.station.NOAA.NDBC:GBTF1:1,2019-03-03T21:00:00Z,25.1670,-80.8010,1.5,34.79,1111122 
ENP,ioos.station.NOAA.NDBC:GBTF1:1,2019-03-03T22:00:00Z,25.1670,-80.8010,1.5,34.86,1111122 
ENP,ioos.station.NOAA.NDBC:GBTF1:1,2019-03-03T23:00:00Z,25.1670,-80.8010,1.5,34.99,1111122 
ENP,ioos.station.NOAA.NDBC:GBTF1:1,2019-03-04T00:00:00Z,25.1670,-80.8010,1.5,35.1,1111122 
ENP,ioos.station.NOAA.NDBC:GBTF1:1,2019-03-04T01:00:00Z,25.1670,-80.8010,1.5,35.09,1111122 
ENP,ioos.station.NOAA.NDBC:GBTF1:1,2019-03-04T02:00:00Z,25.1670,-80.8010,1.5,35.1,11111222 
ENP,ioos.station.NOAA.NDBC:GBTF1:1,2019-03-04T03:00:00Z,25.1670,-80.8010,1.5,35.09,1111122 
ENP,ioos.station.NOAA.NDBC:GBTF1:1,2019-03-04T04:00:00Z,25.1670,-80.8010,1.5,35.1,11111222 
ENP,ioos.station.NOAA.NDBC:GBTF1:1,2019-03-04T05:00:00Z,25.1670,-80.8010,1.5,35.17,1111122 
ENP,ioos.station.NOAA.NDBC:GBTF1:1,2019-03-04T06:00:00Z,25.1670,-80.8010,1.5,35.24,1111122 
ENP,ioos.station.NOAA.NDBC:GBTF1:1,2019-03-04T07:00:00Z,25.1670,-80.8010,1.5,35.4,1111122 
ENP,ioos.station.NOAA.NDBC:GBTF1:1,2019-03-04T08:00:00Z,25.1670,-80.8010,1.5,35.54,1111122 
ENP,ioos.station.NOAA.NDBC:GBTF1:1,2019-03-04T09:00:00Z,25.1670,-80.8010,1.5,35.69,1111122 
ENP,ioos.station.NOAA.NDBC:GBTF1:1,2019-03-04T10:00:00Z,25.1670,-80.8010,1.5,35.73,1111122 
ENP,ioos.station.NOAA.NDBC:GBTF1:1,2019-03-04T11:00:00Z,25.1670,-80.8010,1.5,35.79,1111122 
ENP,ioos.station.NOAA.NDBC:GBTF1:1,2019-03-04T12:00:00Z,25.1670,-80.8010,1.5,35.9,1111122 
ENP,ioos.station.NOAA.NDBC:GBTF1:1,2019-03-04T13:00:00Z,25.1670,-80.8010,1.5,35.99,1111122 
ENP,ioos.station.NOAA.NDBC:GBTF1:1,2019-03-04T14:00:00Z,25.1670,-80.8010,1.5,35.99,1111122 
ENP,ioos.station.NOAA.NDBC:GBTF1:1,2019-03-04T15:00:00Z,25.1670,-80.8010,1.5,35.88,1111122 
ENP,ioos.station.NOAA.NDBC:GBTF1:1,2019-03-04T16:00:00Z,25.1670,-80.8010,1.5,35.75,1111122 
ENP,ioos.station.NOAA.NDBC:GBTF1:1,2019-03-04T17:00:00Z,25.1670,-80.8010,1.5,35.68,1111122 
ENP,ioos.station.NOAA.NDBC:GBTF1:1,2019-03-04T18:00:00Z,25.1670,-80.8010,1.5,35.65,1111122 
ENP,ioos.station.NOAA.NDBC:GBTF1:1,2019-03-04T19:00:00Z,25.1670,-80.8010,1.5,35.64,1111122 
ENP,ioos.station.NOAA.NDBC:GBTF1:1,2019-03-04T20:00:00Z,25.1670,-80.8010,1.5,35.73,1111122 
ENP,ioos.station.NOAA.NDBC:GBTF1:1,2019-03-04T21:00:00Z,25.1670,-80.8010,1.5,35.48,1111122 
ENP,ioos.station.NOAA.NDBC:GBTF1:1,2019-03-04T22:00:00Z,25.1670,-80.8010,1.5,35.52,1111122 
ENP,ioos.station.NOAA.NDBC:GBTF1:1,2019-03-04T23:00:00Z,25.1670,-80.8010,1.5,35.61,1111122 
ENP,ioos.station.NOAA.NDBC:GBTF1:1,2019-03-05T00:00:00Z,25.1670,-80.8010,1.5,35.73,1111122 
ENP,ioos.station.NOAA.NDBC:GBTF1:1,2019-03-05T01:00:00Z,25.1670,-80.8010,1.5,35.72,1111122 
ENP,ioos.station.NOAA.NDBC:GBTF1:1,2019-03-05T02:00:00Z,25.1670,-80.8010,1.5,35.68,1111122 
ENP,ioos.station.NOAA.NDBC:GBTF1:1,2019-03-05T03:00:00Z,25.1670,-80.8010,1.5,35.77,1111122 
ENP,ioos.station.NOAA.NDBC:GBTF1:1,2019-03-05T04:00:00Z,25.1670,-80.8010,1.5,35.8,11111222 
ENP,ioos.station.NOAA.NDBC:GBTF1:1,2019-03-05T05:00:00Z,25.1670,-80.8010,1.5,35.81,1111122 
ENP,ioos.station.NOAA.NDBC:GBTF1:1,2019-03-05T06:00:00Z,25.1670,-80.8010,1.5,35.79,1111122 
ENP,ioos.station.NOAA.NDBC:GBTF1:1,2019-03-05T07:00:00Z,25.1670,-80.8010,1.5,35.82,1111122 
ENP,ioos.station.NOAA.NDBC:GBTF1:1,2019-03-05T08:00:00Z,25.1670,-80.8010,1.5,35.84,1111122 
ENP,ioos.station.NOAA.NDBC:GBTF1:1,2019-03-05T09:00:00Z,25.1670,-80.8010,1.5,35.83,1111122 
ENP,ioos.station.NOAA.NDBC:GBTF1:1,2019-03-05T10:00:00Z,25.1670,-80.8010,1.5,35.87,1111122 
ENP,ioos.station.NOAA.NDBC:GBTF1:1,2019-03-05T11:00:00Z,25.1670,-80.8010,1.5,35.91,1111122 
ENP,ioos.station.NOAA.NDBC:GBTF1:1,2019-03-05T12:00:00Z,25.1670,-80.8010,1.5,35.92,1111122 
ENP,ioos.station.NOAA.NDBC:GBTF1:1,2019-03-05T13:00:00Z,25.1670,-80.8010,1.5,35.91,1111122 
ENP,ioos.station.NOAA.NDBC:GBTF1:1,2019-03-05T14:00:00Z,25.1670,-80.8010,1.5,35.88,1111122 
ENP,ioos.station.NOAA.NDBC:GBTF1:1,2019-03-05T15:00:00Z,25.1670,-80.8010,1.5,35.88,1111122 
ENP,ioos.station.NOAA.NDBC:GBTF1:1,2019-03-05T16:00:00Z,25.1670,-80.8010,1.5,35.85,1111122 
ENP,ioos.station.NOAA.NDBC:GBTF1:1,2019-03-05T17:00:00Z,25.1670,-80.8010,1.5,35.2,1111122 
ENP,ioos.station.NOAA.NDBC:GBTF1:1,2019-03-05T18:00:00Z,25.1670,-80.8010,1.5,35.16,1111122 
ENP,ioos.station.NOAA.NDBC:GBTF1:1,2019-03-05T19:00:00Z,25.1670,-80.8010,1.5,35.1,1111122 
ENP,ioos.station.NOAA.NDBC:GBTF1:1,2019-03-05T20:00:00Z,25.1670,-80.8010,1.5,35.09,1111122 
ENP,ioos.station.NOAA.NDBC:GBTF1:1,2019-03-05T21:00:00Z,25.1670,-80.8010,1.5,35.1,11111222 
ENP,ioos.station.NOAA.NDBC:GBTF1:1,2019-03-05T22:00:00Z,25.1670,-80.8010,1.5,35.16,1111122 
ENP,ioos.station.NOAA.NDBC:GBTF1:1,2019-03-05T23:00:00Z,25.1670,-80.8010,1.5,35.2,1111122 
ENP,ioos.station.NOAA.NDBC:GBTF1:1,2019-03-06T00:00:00Z,25.1670,-80.8010,1.5,35.24,1111122 
ENP,ioos.station.NOAA.NDBC:GBTF1:1,2019-03-06T01:00:00Z,25.1670,-80.8010,1.5,35.25,1111122 
ENP,ioos.station.NOAA.NDBC:GBTF1:1,2019-03-06T02:00:00Z,25.1670,-80.8010,1.5,35.26,1111122 
ENP,ioos.station.NOAA.NDBC:GBTF1:1,2019-03-06T03:00:00Z,25.1670,-80.8010,1.5,35.34,1111122 
ENP,ioos.station.NOAA.NDBC:GBTF1:1,2019-03-06T04:00:00Z,25.1670,-80.8010,1.5,35.4,11111222 
ENP,ioos.station.NOAA.NDBC:GBTF1:1,2019-03-06T05:00:00Z,25.1670,-80.8010,1.5,35.4,1111122 
ENP,ioos.station.NOAA.NDBC:GBTF1:1,2019-03-06T06:00:00Z,25.1670,-80.8010,1.5,35.48,1111122 
ENP,ioos.station.NOAA.NDBC:GBTF1:1,2019-03-06T07:00:00Z,25.1670,-80.8010,1.5,35.25,1111122 
ENP,ioos.station.NOAA.NDBC:GBTF1:1,2019-03-06T08:00:00Z,25.1670,-80.8010,1.5,35.09,1111122 
ENP,ioos.station.NOAA.NDBC:GBTF1:1,2019-03-06T09:00:00Z,25.1670,-80.8010,1.5,35.06,1111122 
ENP,ioos.station.NOAA.NDBC:GBTF1:1,2019-03-06T10:00:00Z,25.1670,-80.8010,1.5,35.17,1111122 
ENP,ioos.station.NOAA.NDBC:GBTF1:1,2019-03-06T11:00:00Z,25.1670,-80.8010,1.5,35.2,1111122 
ENP,ioos.station.NOAA.NDBC:GBTF1:1,2019-03-06T12:00:00Z,25.1670,-80.8010,1.5,35.47,1111122 
ENP,ioos.station.NOAA.NDBC:GBTF1:1,2019-03-06T13:00:00Z,25.1670,-80.8010,1.5,35.45,1111122 
ENP,ioos.station.NOAA.NDBC:GBTF1:1,2019-03-06T14:00:00Z,25.1670,-80.8010,1.5,35.29,1111122 
ENP,ioos.station.NOAA.NDBC:GBTF1:1,2019-03-06T15:00:00Z,25.1670,-80.8010,1.5,35.32,1111122 
ENP,ioos.station.NOAA.NDBC:GBTF1:1,2019-03-06T16:00:00Z,25.1670,-80.8010,1.5,35.53,1111122 
ENP,ioos.station.NOAA.NDBC:GBTF1:1,2019-03-06T17:00:00Z,25.1670,-80.8010,1.5,35.39,1111122 
ENP,ioos.station.NOAA.NDBC:GBTF1:1,2019-03-06T18:00:00Z,25.1670,-80.8010,1.5,35.63,1111122 
ENP,ioos.station.NOAA.NDBC:GBTF1:1,2019-03-06T19:00:00Z,25.1670,-80.8010,1.5,33.75,1111122 
ENP,ioos.station.NOAA.NDBC:GBTF1:1,2019-03-06T20:00:00Z,25.1670,-80.8010,1.5,32.27,1111122 
ENP,ioos.station.NOAA.NDBC:GBTF1:1,2019-03-06T21:00:00Z,25.1670,-80.8010,1.5,31.95,1111122 
ENP,ioos.station.NOAA.NDBC:GBTF1:1,2019-03-06T22:00:00Z,25.1670,-80.8010,1.5,31.5,1111122 
ENP,ioos.station.NOAA.NDBC:GBTF1:1,2019-03-06T23:00:00Z,25.1670,-80.8010,1.5,31.22,1111122 
ENP,ioos.station.NOAA.NDBC:GBTF1:1,2019-03-07T00:00:00Z,25.1670,-80.8010,1.5,31.54,1111122 
ENP,ioos.station.NOAA.NDBC:GBTF1:1,2019-03-07T01:00:00Z,25.1670,-80.8010,1.5,34.42,1111122 
ENP,ioos.station.NOAA.NDBC:GBTF1:1,2019-03-07T02:00:00Z,25.1670,-80.8010,1.5,34.88,1111122 
ENP,ioos.station.NOAA.NDBC:GBTF1:1,2019-03-07T03:00:00Z,25.1670,-80.8010,1.5,34.97,1111122 
ENP,ioos.station.NOAA.NDBC:GBTF1:1,2019-03-07T04:00:00Z,25.1670,-80.8010,1.5,33.9,11111222 
ENP,ioos.station.NOAA.NDBC:GBTF1:1,2019-03-07T05:00:00Z,25.1670,-80.8010,1.5,33.55,1111122 
ENP,ioos.station.NOAA.NDBC:GBTF1:1,2019-03-07T06:00:00Z,25.1670,-80.8010,1.5,33.67,1111122 
ENP,ioos.station.NOAA.NDBC:GBTF1:1,2019-03-07T07:00:00Z,25.1670,-80.8010,1.5,32.99,1111122 
ENP,ioos.station.NOAA.NDBC:GBTF1:1,2019-03-07T08:00:00Z,25.1670,-80.8010,1.5,33.5,1111122 
ENP,ioos.station.NOAA.NDBC:GBTF1:1,2019-03-07T09:00:00Z,25.1670,-80.8010,1.5,32.11,1111122 
ENP,ioos.station.NOAA.NDBC:GBTF1:1,2019-03-07T10:00:00Z,25.1670,-80.8010,1.5,29.93,1111122 
ENP,ioos.station.NOAA.NDBC:GBTF1:1,2019-03-07T11:00:00Z,25.1670,-80.8010,1.5,29.14,1111122 
ENP,ioos.station.NOAA.NDBC:GBTF1:1,2019-03-07T12:00:00Z,25.1670,-80.8010,1.5,29.39,1111122 
ENP,ioos.station.NOAA.NDBC:GBTF1:1,2019-03-07T13:00:00Z,25.1670,-80.8010,1.5,29.08,1111122 
ENP,ioos.station.NOAA.NDBC:GBTF1:1,2019-03-07T14:00:00Z,25.1670,-80.8010,1.5,28.87,1111122 
ENP,ioos.station.NOAA.NDBC:GBTF1:1,2019-03-07T15:00:00Z,25.1670,-80.8010,1.5,30.06,1111122 
ENP,ioos.station.NOAA.NDBC:GBTF1:1,2019-03-07T16:00:00Z,25.1670,-80.8010,1.5,32.34,1111122 
ENP,ioos.station.NOAA.NDBC:GBTF1:1,2019-03-07T17:00:00Z,25.1670,-80.8010,1.5,32.34,1111122 
ENP,ioos.station.NOAA.NDBC:GBTF1:1,2019-03-07T18:00:00Z,25.1670,-80.8010,1.5,33.5,1111122 
ENP,ioos.station.NOAA.NDBC:GBTF1:1,2019-03-07T19:00:00Z,25.1670,-80.8010,1.5,35.51,1111122 
ENP,ioos.station.NOAA.NDBC:GBTF1:1,2019-03-07T20:00:00Z,25.1670,-80.8010,1.5,36.08,1111122 
ENP,ioos.station.NOAA.NDBC:GBTF1:1,2019-03-07T21:00:00Z,25.1670,-80.8010,1.5,36.22,1111122 
ENP,ioos.station.NOAA.NDBC:GBTF1:1,2019-03-07T22:00:00Z,25.1670,-80.8010,1.5,36.32,1111122 
ENP,ioos.station.NOAA.NDBC:GBTF1:1,2019-03-07T23:00:00Z,25.1670,-80.8010,1.5,36.44,1111122 
ENP,ioos.station.NOAA.NDBC:GBTF1:1,2019-03-08T00:00:00Z,25.1670,-80.8010,1.5,36.53,1111122 
ENP,ioos.station.NOAA.NDBC:GBTF1:1,2019-03-08T01:00:00Z,25.1670,-80.8010,1.5,36.34,1111122 
ENP,ioos.station.NOAA.NDBC:GBTF1:1,2019-03-08T02:00:00Z,25.1670,-80.8010,1.5,36.41,1111122 
ENP,ioos.station.NOAA.NDBC:GBTF1:1,2019-03-08T03:00:00Z,25.1670,-80.8010,1.5,36.53,1111122 
ENP,ioos.station.NOAA.NDBC:GBTF1:1,2019-03-08T04:00:00Z,25.1670,-80.8010,1.5,36.6,11111222 
ENP,ioos.station.NOAA.NDBC:GBTF1:1,2019-03-08T05:00:00Z,25.1670,-80.8010,1.5,36.62,1111122 
ENP,ioos.station.NOAA.NDBC:GBTF1:1,2019-03-08T06:00:00Z,25.1670,-80.8010,1.5,36.63,1111122 
ENP,ioos.station.NOAA.NDBC:GBTF1:1,2019-03-08T07:00:00Z,25.1670,-80.8010,1.5,36.66,1111122 
ENP,ioos.station.NOAA.NDBC:GBTF1:1,2019-03-08T08:00:00Z,25.1670,-80.8010,1.5,36.66,1111122 
ENP,ioos.station.NOAA.NDBC:GBTF1:1,2019-03-08T09:00:00Z,25.1670,-80.8010,1.5,36.28,1111122 
ENP,ioos.station.NOAA.NDBC:GBTF1:1,2019-03-08T10:00:00Z,25.1670,-80.8010,1.5,36.05,1111122 
ENP,ioos.station.NOAA.NDBC:GBTF1:1,2019-03-08T11:00:00Z,25.1670,-80.8010,1.5,35.91,1111122 
ENP,ioos.station.NOAA.NDBC:GBTF1:1,2019-03-08T12:00:00Z,25.1670,-80.8010,1.5,36.73,1111122 
ENP,ioos.station.NOAA.NDBC:GBTF1:1,2019-03-08T13:00:00Z,25.1670,-80.8010,1.5,36.75,1111122 
ENP,ioos.station.NOAA.NDBC:GBTF1:1,2019-03-08T14:00:00Z,25.1670,-80.8010,1.5,36.8,11111222 
ENP,ioos.station.NOAA.NDBC:GBTF1:1,2019-03-08T15:00:00Z,25.1670,-80.8010,1.5,36.81,1111122 
ENP,ioos.station.NOAA.NDBC:GBTF1:1,2019-03-08T16:00:00Z,25.1670,-80.8010,1.5,36.83,1111122 
ENP,ioos.station.NOAA.NDBC:GBTF1:1,2019-03-08T17:00:00Z,25.1670,-80.8010,1.5,36.95,1111122 
ENP,ioos.station.NOAA.NDBC:GBTF1:1,2019-03-08T18:00:00Z,25.1670,-80.8010,1.5,36.94,1111122 
ENP,ioos.station.NOAA.NDBC:GBTF1:1,2019-03-08T19:00:00Z,25.1670,-80.8010,1.5,36.77,1111122 
ENP,ioos.station.NOAA.NDBC:GBTF1:1,2019-03-08T20:00:00Z,25.1670,-80.8010,1.5,36.63,1111122 
ENP,ioos.station.NOAA.NDBC:GBTF1:1,2019-03-08T21:00:00Z,25.1670,-80.8010,1.5,36.69,1111122 
ENP,ioos.station.NOAA.NDBC:GBTF1:1,2019-03-08T22:00:00Z,25.1670,-80.8010,1.5,36.88,1111122 
ENP,ioos.station.NOAA.NDBC:GBTF1:1,2019-03-08T23:00:00Z,25.1670,-80.8010,1.5,37.01,1111122 
ENP,ioos.station.NOAA.NDBC:GBTF1:1,2019-03-09T00:00:00Z,25.1670,-80.8010,1.5,37.05,1111122 
ENP,ioos.station.NOAA.NDBC:GBTF1:1,2019-03-09T01:00:00Z,25.1670,-80.8010,1.5,37.1,11111222 
ENP,ioos.station.NOAA.NDBC:GBTF1:1,2019-03-09T02:00:00Z,25.1670,-80.8010,1.5,37.0,11111222 
ENP,ioos.station.NOAA.NDBC:GBTF1:1,2019-03-09T03:00:00Z,25.1670,-80.8010,1.5,37.1,1111122 
ENP,ioos.station.NOAA.NDBC:GBTF1:1,2019-03-09T04:00:00Z,25.1670,-80.8010,1.5,37.1,11111222 
ENP,ioos.station.NOAA.NDBC:GBTF1:1,2019-03-09T05:00:00Z,25.1670,-80.8010,1.5,37.12,1111122 
ENP,ioos.station.NOAA.NDBC:GBTF1:1,2019-03-09T06:00:00Z,25.1670,-80.8010,1.5,37.08,1111122 
ENP,ioos.station.NOAA.NDBC:GBTF1:1,2019-03-09T07:00:00Z,25.1670,-80.8010,1.5,37.06,1111122 
ENP,ioos.station.NOAA.NDBC:GBTF1:1,2019-03-09T08:00:00Z,25.1670,-80.8010,1.5,37.07,1111122 
ENP,ioos.station.NOAA.NDBC:GBTF1:1,2019-03-09T09:00:00Z,25.1670,-80.8010,1.5,37.09,1111122 
ENP,ioos.station.NOAA.NDBC:GBTF1:1,2019-03-09T10:00:00Z,25.1670,-80.8010,1.5,37.03,1111122 
ENP,ioos.station.NOAA.NDBC:GBTF1:1,2019-03-09T11:00:00Z,25.1670,-80.8010,1.5,37.12,1111122 
ENP,ioos.station.NOAA.NDBC:GBTF1:1,2019-03-09T12:00:00Z,25.1670,-80.8010,1.5,37.05,1111122 
ENP,ioos.station.NOAA.NDBC:GBTF1:1,2019-03-09T13:00:00Z,25.1670,-80.8010,1.5,37.0,1111122 
ENP,ioos.station.NOAA.NDBC:GBTF1:1,2019-03-09T14:00:00Z,25.1670,-80.8010,1.5,36.98,1111122 
ENP,ioos.station.NOAA.NDBC:GBTF1:1,2019-03-09T15:00:00Z,25.1670,-80.8010,1.5,36.95,1111122 
ENP,ioos.station.NOAA.NDBC:GBTF1:1,2019-03-09T16:00:00Z,25.1670,-80.8010,1.5,36.88,1111122 
ENP,ioos.station.NOAA.NDBC:GBTF1:1,2019-03-09T17:00:00Z,25.1670,-80.8010,1.5,36.78,1111122 
ENP,ioos.station.NOAA.NDBC:GBTF1:1,2019-03-09T18:00:00Z,25.1670,-80.8010,1.5,36.7,1111122 
ENP,ioos.station.NOAA.NDBC:GBTF1:1,2019-03-09T19:00:00Z,25.1670,-80.8010,1.5,36.54,1111122 
ENP,ioos.station.NOAA.NDBC:GBTF1:1,2019-03-09T20:00:00Z,25.1670,-80.8010,1.5,36.35,1111122 
ENP,ioos.station.NOAA.NDBC:GBTF1:1,2019-03-09T21:00:00Z,25.1670,-80.8010,1.5,36.09,1111122 
ENP,ioos.station.NOAA.NDBC:GBTF1:1,2019-03-09T22:00:00Z,25.1670,-80.8010,1.5,35.75,1111122 
ENP,ioos.station.NOAA.NDBC:GBTF1:1,2019-03-09T23:00:00Z,25.1670,-80.8010,1.5,36.76,1111122 
ENP,ioos.station.NOAA.NDBC:GBTF1:1,2019-03-10T00:00:00Z,25.1670,-80.8010,1.5,36.62,1111122 
ENP,ioos.station.NOAA.NDBC:GBTF1:1,2019-03-10T01:00:00Z,25.1670,-80.8010,1.5,36.57,1111122 
ENP,ioos.station.NOAA.NDBC:GBTF1:1,2019-03-10T02:00:00Z,25.1670,-80.8010,1.5,36.6,1111122 
ENP,ioos.station.NOAA.NDBC:GBTF1:1,2019-03-10T03:00:00Z,25.1670,-80.8010,1.5,36.8,11111222 
ENP,ioos.station.NOAA.NDBC:GBTF1:1,2019-03-10T04:00:00Z,25.1670,-80.8010,1.5,36.78,1111122 
ENP,ioos.station.NOAA.NDBC:GBTF1:1,2019-03-10T05:00:00Z,25.1670,-80.8010,1.5,36.77,1111122 
ENP,ioos.station.NOAA.NDBC:GBTF1:1,2019-03-10T06:00:00Z,25.1670,-80.8010,1.5,36.74,1111122 
ENP,ioos.station.NOAA.NDBC:GBTF1:1,2019-03-10T08:00:00Z,25.1670,-80.8010,1.5,36.44,1111122 
ENP,ioos.station.NOAA.NDBC:GBTF1:1,2019-03-10T09:00:00Z,25.1670,-80.8010,1.5,36.46,1111122 
ENP,ioos.station.NOAA.NDBC:GBTF1:1,2019-03-10T10:00:00Z,25.1670,-80.8010,1.5,36.49,1111122 
ENP,ioos.station.NOAA.NDBC:GBTF1:1,2019-03-10T11:00:00Z,25.1670,-80.8010,1.5,36.57,1111122 
ENP,ioos.station.NOAA.NDBC:GBTF1:1,2019-03-10T12:00:00Z,25.1670,-80.8010,1.5,36.77,1111122 
ENP,ioos.station.NOAA.NDBC:GBTF1:1,2019-03-10T13:00:00Z,25.1670,-80.8010,1.5,36.78,1111122 
ENP,ioos.station.NOAA.NDBC:GBTF1:1,2019-03-10T14:00:00Z,25.1670,-80.8010,1.5,36.8,1111122 
ENP,ioos.station.NOAA.NDBC:GBTF1:1,2019-03-10T15:00:00Z,25.1670,-80.8010,1.5,36.82,1111122 
ENP,ioos.station.NOAA.NDBC:GBTF1:1,2019-03-10T16:00:00Z,25.1670,-80.8010,1.5,36.72,1111122 
ENP,ioos.station.NOAA.NDBC:GBTF1:1,2019-03-10T17:00:00Z,25.1670,-80.8010,1.5,36.54,1111122 
ENP,ioos.station.NOAA.NDBC:GBTF1:1,2019-03-10T18:00:00Z,25.1670,-80.8010,1.5,36.37,1111122 
ENP,ioos.station.NOAA.NDBC:GBTF1:1,2019-03-10T19:00:00Z,25.1670,-80.8010,1.5,36.21,1111122 
ENP,ioos.station.NOAA.NDBC:GBTF1:1,2019-03-10T20:00:00Z,25.1670,-80.8010,1.5,35.69,1111122 
ENP,ioos.station.NOAA.NDBC:GBTF1:1,2019-03-10T21:00:00Z,25.1670,-80.8010,1.5,35.07,1111122 
ENP,ioos.station.NOAA.NDBC:GBTF1:1,2019-03-10T22:00:00Z,25.1670,-80.8010,1.5,34.9,11111222 
ENP,ioos.station.NOAA.NDBC:GBTF1:1,2019-03-10T23:00:00Z,25.1670,-80.8010,1.5,35.6,11111222 
ENP,ioos.station.NOAA.NDBC:GBTF1:1,2019-03-11T00:00:00Z,25.1670,-80.8010,1.5,36.1,11111222 
ENP,ioos.station.NOAA.NDBC:GBTF1:1,2019-03-11T01:00:00Z,25.1670,-80.8010,1.5,36.2,11111222 
ENP,ioos.station.NOAA.NDBC:GBTF1:1,2019-03-11T02:00:00Z,25.1670,-80.8010,1.5,36.1,11111222 
ENP,ioos.station.NOAA.NDBC:GBTF1:1,2019-03-11T03:00:00Z,25.1670,-80.8010,1.5,36.0,11111222 
ENP,ioos.station.NOAA.NDBC:GBTF1:1,2019-03-11T04:00:00Z,25.1670,-80.8010,1.5,35.85,1111122 
ENP,ioos.station.NOAA.NDBC:GBTF1:1,2019-03-11T05:00:00Z,25.1670,-80.8010,1.5,35.71,1111122 
ENP,ioos.station.NOAA.NDBC:GBTF1:1,2019-03-11T06:00:00Z,25.1670,-80.8010,1.5,35.62,1111122 
ENP,ioos.station.NOAA.NDBC:GBTF1:1,2019-03-11T07:00:00Z,25.1670,-80.8010,1.5,35.53,1111122 
ENP,ioos.station.NOAA.NDBC:GBTF1:1,2019-03-11T08:00:00Z,25.1670,-80.8010,1.5,35.62,1111122 
ENP,ioos.station.NOAA.NDBC:GBTF1:1,2019-03-11T09:00:00Z,25.1670,-80.8010,1.5,35.88,1111122 
ENP,ioos.station.NOAA.NDBC:GBTF1:1,2019-03-11T10:00:00Z,25.1670,-80.8010,1.5,35.57,1111122 
ENP,ioos.station.NOAA.NDBC:GBTF1:1,2019-03-11T11:00:00Z,25.1670,-80.8010,1.5,35.44,1111122 
ENP,ioos.station.NOAA.NDBC:GBTF1:1,2019-03-11T12:00:00Z,25.1670,-80.8010,1.5,35.86,1111122 
ENP,ioos.station.NOAA.NDBC:GBTF1:1,2019-03-11T13:00:00Z,25.1670,-80.8010,1.5,36.1,1111122 
ENP,ioos.station.NOAA.NDBC:GBTF1:1,2019-03-11T14:00:00Z,25.1670,-80.8010,1.5,36.2,1111122 
ENP,ioos.station.NOAA.NDBC:GBTF1:1,2019-03-11T15:00:00Z,25.1670,-80.8010,1.5,35.85,1111122 
ENP,ioos.station.NOAA.NDBC:GBTF1:1,2019-03-11T16:00:00Z,25.1670,-80.8010,1.5,35.44,1111122 
ENP,ioos.station.NOAA.NDBC:GBTF1:1,2019-03-11T17:00:00Z,25.1670,-80.8010,1.5,35.4,11111222 
ENP,ioos.station.NOAA.NDBC:GBTF1:1,2019-03-11T18:00:00Z,25.1670,-80.8010,1.5,35.43,1111122 
ENP,ioos.station.NOAA.NDBC:GBTF1:1,2019-03-11T19:00:00Z,25.1670,-80.8010,1.5,35.6,1111122 
ENP,ioos.station.NOAA.NDBC:GBTF1:1,2019-03-11T20:00:00Z,25.1670,-80.8010,1.5,35.65,1111122 